Fargo, ND

7:17 AM CDT on August 26, 2016 (GMT -0500)
Hector International

Weather History for KFAR - March, 2011

Change the Weather History Date:

Wednesday, March 9, 2011

  Actual Average Record
Temperature  
Mean Temperature 26 °F 24 °F  
Max Temperature 29 °F 32 °F 58 °F (2015)
Min Temperature 22 °F 16 °F -26 °F (1948)
Degree Days  
Heating Degree Days 39 41  
Month to date heating degree days 483 385  
Since 1 July heating degree days 7386 7063  
Cooling Degree Days 0 0  
Month to date cooling degree days 0 0  
Year to date cooling degree days 0 0  
Moisture  
Dew Point 22 °F    
Average Humidity 87    
Maximum Humidity 92    
Minimum Humidity 81    
Precipitation  
Precipitation 0.17 in 0.05 in 0.50 in (1898)
Month to date precipitation 0.50 0.35  
Year to date precipitation 1.48 1.66  
Snow  
Snow 1.80 in 0.30 in 6.10 in (1993)
Month to date snowfall 5.6 3.2  
Since 1 July snowfall 72.6 41.2  
Snow Depth 16.00 in    
Sea Level Pressure  
Sea Level Pressure 30.17 in    
Wind  
Wind Speed 7 mph (NNW)    
Max Wind Speed 25 mph    
Max Gust Speed 29 mph    
Visibility 4 miles    
Events Fog , Snow    
T = Trace of Precipitation, MM = Missing Value Source: NWS Daily Summary

Daily Weather History Graph

Daily Weather History Graph

Search for Another Location

Airport or City:

Trip Planner

Search our weather history database for the weather conditions in past years. The results will help you decide how hot, cold, wet, or windy it might be!

Date:

Astronomy

Mar. 09, 2011 Rise Set
Actual Time 6:52 AM CST 6:24 PM CST
Civil Twilight 6:22 AM CST 6:54 PM CST
Nautical Twilight 5:46 AM CST 7:29 PM CST
Astronomical Twilight 5:11 AM CST 8:05 PM CST
Moon 8:22 AM CST (3/9) 11:47 PM CST (3/9)
Length of Visible Light 12h 32m
Length of Day
11h 31m
Waxing Crescent, 20% of the Moon is Illuminated
Mar 9
Waxing Crescent
Mar 12
First Quarter
Mar 19
Full
Mar 26
Last Quarter
Apr 3
New

Hourly Weather History & Observations

Time (CST) Temp. Windchill Dew Point Humidity Pressure Visibility Wind Dir Wind Speed Gust Speed Precip Events Conditions
12:18 AM 26.6 °F - 23.0 °F 86% 30.14 in 1.0 mi Calm Calm - 0.01 in Snow Light Snow
12:53 AM 26.1 °F 21.9 °F 23.0 °F 88% 30.19 in 1.2 mi NNE 3.5 mph - 0.03 in Snow Light Snow
1:43 AM 26.6 °F - 23.0 °F 86% 30.13 in 2.0 mi Calm Calm - 0.02 in Snow Light Snow
1:50 AM 26.6 °F - 24.8 °F 93% 30.12 in 1.8 mi Calm Calm - 0.02 in Snow Light Snow
1:53 AM 26.1 °F - 24.1 °F 92% 30.18 in 1.8 mi Calm Calm - 0.02 in Snow Light Snow
1:59 AM 26.6 °F - 23.0 °F 86% 30.12 in 2.0 mi Calm Calm - 0.00 in Snow Light Snow
2:02 AM 26.6 °F - 23.0 °F 86% 30.12 in 2.0 mi Calm Calm - 0.00 in Snow Light Snow
2:11 AM 26.6 °F - 23.0 °F 86% 30.12 in 1.2 mi Calm Calm - 0.00 in Snow Light Snow
2:53 AM 26.1 °F - 23.0 °F 88% 30.16 in 1.8 mi Calm Calm - 0.01 in Snow Light Snow
3:03 AM 26.6 °F - 23.0 °F 86% 30.10 in 2.0 mi Calm Calm - 0.01 in Snow Light Snow
3:10 AM 26.6 °F - 23.0 °F 86% 30.10 in 3.0 mi Calm Calm - 0.01 in Snow Light Snow
3:30 AM 26.6 °F - 23.0 °F 86% 30.10 in 2.0 mi Calm Calm - 0.01 in Snow Light Snow
3:37 AM 26.6 °F - 23.0 °F 86% 30.10 in 1.5 mi Calm Calm - 0.01 in Snow Light Snow
3:48 AM 26.6 °F - 24.8 °F 93% 30.10 in 2.0 mi Calm Calm - 0.01 in Snow Light Snow
3:53 AM 26.1 °F - 24.1 °F 92% 30.15 in 2.0 mi Calm Calm - 0.01 in Snow Light Snow
4:51 AM 26.6 °F - 24.8 °F 93% 30.10 in 1.8 mi Calm Calm - 0.02 in Snow Light Snow
4:53 AM 27.0 °F - 24.1 °F 89% 30.15 in 1.8 mi Calm Calm - 0.02 in Snow Light Snow
5:12 AM 26.6 °F - 24.8 °F 93% 30.11 in 1.2 mi Calm Calm - 0.00 in Snow Light Snow
5:53 AM 26.1 °F 21.9 °F 24.1 °F 92% 30.16 in 1.2 mi NW 3.5 mph - 0.02 in Snow Light Snow
6:06 AM 26.6 °F 21.2 °F 24.8 °F 93% 30.11 in 2.5 mi NNW 4.6 mph - 0.00 in Snow Light Snow
6:18 AM 26.6 °F 21.2 °F 24.8 °F 93% 30.11 in 1.2 mi North 4.6 mph - 0.01 in Snow Light Snow
6:40 AM 26.6 °F 21.2 °F 24.8 °F 93% 30.12 in 1.8 mi North 4.6 mph - 0.01 in Snow Light Snow
6:53 AM 26.1 °F 20.5 °F 24.1 °F 92% 30.17 in 2.0 mi North 4.6 mph - 0.01 in Snow Light Snow
7:10 AM 26.6 °F 20.0 °F 24.8 °F 93% 30.12 in 1.2 mi North 5.8 mph - 0.01 in Snow Light Snow
7:26 AM 26.6 °F 21.2 °F 24.8 °F 93% 30.13 in 0.5 mi North 4.6 mph - 0.01 in Fog , Snow Light Snow
7:40 AM 26.6 °F 22.6 °F 24.8 °F 93% 30.13 in 0.5 mi North 3.5 mph - 0.02 in Fog , Snow Light Snow
7:53 AM 28.0 °F 24.2 °F 25.0 °F 88% 30.18 in 0.5 mi NNE 3.5 mph - 0.03 in Fog , Snow Light Snow
8:53 AM 28.0 °F 24.2 °F 25.0 °F 88% 30.19 in 1.0 mi NNE 3.5 mph - 0.01 in Snow Light Snow
9:06 AM 26.6 °F 17.5 °F 24.8 °F 93% 30.14 in 0.8 mi NNW 9.2 mph - 0.01 in Snow Light Snow
9:15 AM 26.6 °F 16.8 °F 21.2 °F 80% 30.14 in 0.8 mi NNW 10.4 mph - 0.01 in Snow Light Snow
9:20 AM 24.8 °F 15.3 °F 21.2 °F 86% 30.14 in 1.2 mi NNW 9.2 mph - 0.01 in Snow Light Snow
9:30 AM 24.8 °F 14.0 °F 21.2 °F 86% 30.14 in 3.0 mi NNW 11.5 mph - 0.01 in Snow Light Snow
9:38 AM 24.8 °F 13.4 °F 21.2 °F 86% 30.15 in 2.0 mi NNW 12.7 mph - 0.01 in Snow Light Snow
9:45 AM 24.8 °F 14.6 °F 19.4 °F 80% 30.15 in 1.8 mi NNW 10.4 mph - 0.01 in Snow Light Snow
9:53 AM 24.1 °F 13.1 °F 19.9 °F 84% 30.19 in 2.5 mi NNW 11.5 mph - 0.01 in Snow Light Snow
10:00 AM 24.8 °F 14.6 °F 19.4 °F 80% 30.15 in 3.0 mi NNW 10.4 mph - 0.00 in Snow Light Snow
10:12 AM 24.8 °F 13.4 °F 19.4 °F 80% 30.15 in 2.5 mi NNW 12.7 mph - 0.00 in Snow Light Snow
10:31 AM 23.0 °F 11.1 °F 19.4 °F 86% 30.15 in 4.0 mi NNW 12.7 mph - 0.00 in Snow Light Snow
10:53 AM 24.1 °F 13.1 °F 19.9 °F 84% 30.20 in 5.0 mi NNW 11.5 mph - 0.00 in Snow Light Snow
11:53 AM 24.1 °F 12.0 °F 19.9 °F 84% 30.21 in 5.0 mi NNW 13.8 mph - 0.00 in   Overcast
12:53 PM 25.0 °F 13.6 °F 21.0 °F 85% 30.21 in 7.0 mi NNW 12.7 mph - N/A   Overcast
1:39 PM 26.6 °F 16.2 °F 21.2 °F 80% 30.17 in 7.0 mi NNW 11.5 mph - N/A   Overcast
1:53 PM 26.1 °F 15.0 °F 21.0 °F 81% 30.21 in 8.0 mi NNW 12.7 mph - N/A   Overcast
2:53 PM 26.1 °F 14.5 °F 21.0 °F 81% 30.22 in 9.0 mi NNW 13.8 mph - N/A   Overcast
3:48 PM 26.6 °F 16.2 °F 21.2 °F 80% 30.18 in 9.0 mi NNW 11.5 mph - N/A   Overcast
3:53 PM 26.1 °F 15.6 °F 21.0 °F 81% 30.23 in 10.0 mi NNW 11.5 mph - N/A   Overcast
4:53 PM 26.1 °F 16.8 °F 21.0 °F 81% 30.24 in 10.0 mi NNW 9.2 mph - N/A   Overcast
5:22 PM 26.6 °F 16.2 °F 21.2 °F 80% 30.20 in 10.0 mi NNW 11.5 mph - N/A   Overcast
5:53 PM 25.0 °F 15.5 °F 21.0 °F 85% 30.25 in 8.0 mi NNW 9.2 mph - N/A   Overcast
6:53 PM 25.0 °F 18.1 °F 21.0 °F 85% 30.27 in 10.0 mi North 5.8 mph - N/A   Overcast
7:53 PM 25.0 °F 18.1 °F 21.0 °F 85% 30.27 in 10.0 mi NW 5.8 mph - N/A   Overcast
8:53 PM 25.0 °F 16.3 °F 19.9 °F 81% 30.26 in 10.0 mi NNW 8.1 mph - N/A   Overcast
9:53 PM 24.1 °F 16.0 °F 19.0 °F 81% 30.27 in 10.0 mi WNW 6.9 mph - N/A   Overcast
10:53 PM 23.0 °F 15.8 °F 18.0 °F 81% 30.28 in 9.0 mi NW 5.8 mph - N/A   Overcast
11:17 PM 23.0 °F 15.8 °F 17.6 °F 80% 30.24 in 9.0 mi NW 5.8 mph - N/A   Overcast
11:53 PM 21.9 °F 15.7 °F 17.1 °F 82% 30.29 in 9.0 mi NW 4.6 mph - N/A   Overcast